Hourly Data Report for September 29, 2017

All times are specified in Local Standard Time (LST). Add 1 hour to adjust for Daylight Saving Time where and when it is observed.

KUGAARUK CLIMATE
NUNAVUT

68°32'15.060" N
89°47'47.020" W
15.80 m
2303094
71407
NBB

Download Data

Hourly Data (September 2017)
Hourly Data Report for September 29, 2017
Temp Definition
°C
Dew Point Temp Definition
°C
Rel Hum Definition
%
Wind Dir Definition
10's deg

Wind Spd Definition
km/h
Visibility Definition
km
Stn Press Definition
kPa
Hmdx Definition


Wind Chill Definition


Weather Definition


TIME
00:00 -4.0 -7.9 74 26 23   101.64   -11 LegendNANA
01:00 -4.4 -7.8 77 24 21   101.56   -11 LegendNANA
02:00 -4.4 -8.3 74 24 20   101.45   -11 LegendNANA
03:00 -4.2 -8.1 74 24 19   101.31   -10 LegendNANA
04:00 -4.3 -8.0 75 21 15   101.17   -10 LegendNANA
05:00 -4.2 -7.7 77 19 14   101.03   -9 LegendNANA
06:00 -3.9 -7.2 78 15 15   100.87   -9 LegendNANA
07:00 -3.5 -6.5 80 15 20   100.69   -10 LegendNANA
08:00 -3.4 -6.0 83 15 28   100.54   -11 LegendNANA
09:00 -2.9 -4.9 86 15 25   100.39   -10 LegendNANA
10:00 -2.5 -4.5 86 15 27   100.25   -9 LegendNANA
11:00 -2.2 -3.8 89 14 21   100.13   -8 LegendNANA
12:00 -1.9 -3.4 89 13 19   99.99   -7 LegendNANA
13:00 -1.8 -3.4 89 13 22   99.86   -8 LegendNANA
14:00 -1.7 -3.4 89 12 21   99.79   -8 LegendNANA
15:00 -1.8 -3.1 91 10 20   99.73   -8 LegendNANA
16:00 -2.1 -3.0 94 8 18   99.69   -8 LegendNANA
17:00 -2.3 -3.0 95 7 21   99.68   -8 LegendNANA
18:00 -2.5 -3.1 95 6 30   99.70   -10 LegendNANA
19:00 -3.3 -4.0 94 5 40   99.77   -12 LegendNANA
20:00 -3.7 -4.8 92 5 40   99.85   -12 LegendNANA
21:00 -4.7 -6.2 89 4 40   99.94   -14 LegendNANA
22:00 -4.9 -7.0 86 4 34   100.09   -13 LegendNANA
23:00 -4.8 -7.3 82 4 36   100.20   -13 LegendNANA

Notes on Data Quality.

Legend

  • E = Estimated
  • M = Missing
  • NA = Not Available
  • ‡ = Partner data that is not subject to review by the National Climate Archives
Date modified: